Regional Weather Roundup
Issued by NWS Mobile, AL

Home | Current Version | Previous Version | Text Only | Print | Product List | Glossary On
Versions: 1 2 3 4 5 6 7 8 9 10 11 12 13 14 15 16 17 18 19 20 21 22 23 24 25 26 27 28 29 30 31 32 33 34 35 36 37 38 39 40 41 42 43 44 45 46 47 48 49 50
000
ASUS44 KMOB 260512
RWRMOB
REGIONAL WEATHER ROUNDUP
NATIONAL WEATHER SERVICE MOBILE AL
1200 AM CDT WED SEP 26 2018

NOTE: "FAIR" INDICATES FEW OR NO CLOUDS BELOW 12,000 FEET WITH NO
      SIGNIFICANT WEATHER AND/OR OBSTRUCTIONS TO VISIBILITY.

  * THESE STATIONS ARE PART OF THE UNIVERSITY OF SOUTH ALABAMA
    MESONET AND ARE NOT UNDER NWS OR FAA QUALITY CONTROL.

ALZ061>064-260600-
COASTAL ALABAMA

CITY           SKY/WX    TMP DP  RH WIND       PRES   REMARKS
MOBILE REG APT FAIR      78  75  90 S6        30.09F
BROOKLEY FIELD FAIR      83  78  85 S3        30.10S
USA CAMPUS*      N/A     75  75 100 CALM      30.09S
DOG RIVER*       N/A     77  75  94 CALM        N/A


CITY           SKY/WX    TMP DP  RH WIND       PRES   REMARKS
GULF SHORES    FAIR      79  76  91 CALM      30.08F

$$

ALZ051>060-260600-
INTERIOR SOUTHWEST AND SOUTH CENTRAL ALABAMA

CITY           SKY/WX    TMP DP  RH WIND       PRES   REMARKS
GREENVILLE     NOT AVBL
EVERGREEN      FAIR      76  73  91 E3        30.11F
ATMORE*          N/A    N/A N/A N/A CALM      30.87S
ANDALUSIA/OPP  FAIR      76  72  87 CALM      30.12
ANDALUSIA*       N/A    N/A N/A N/A SE5       30.12S
FLORALA APT    NOT AVBL
FLORALA*         N/A     73  72  94 CALM      30.85S

$$

FLZ001>006-260600-
WESTERN FLORIDA PANHANDLE

CITY           SKY/WX    TMP DP  RH WIND       PRES   REMARKS
PENSACOLA      MOCLDY    82  77  84 E3        30.09S
NAS PENSACOLA  NOT AVBL
MILTON         FAIR      74  74 100 CALM      30.10S
WHTNG S FIELD  FAIR      76  75  97 E5        30.10S


CITY           SKY/WX    TMP DP  RH WIND       PRES   REMARKS
JAY*             N/A    N/A N/A N/A SE3         N/A
CRESTVIEW      FAIR      74  71  91 CALM      30.12S
VALPARAISO     NOT AVBL
DESTIN         FAIR      78  76  93 CALM      30.09F

$$

MSZ076-079-260600-
INTERIOR SOUTHEAST MISSISSIPPI

CITY           SKY/WX    TMP DP  RH WIND       PRES   REMARKS
LEAKESVILLE*   NOT AVBL
AGRICOLA*        N/A     75  73  94 CALM        N/A

$$

MARINE OBSERVATIONS

STATION/POSITION TIME  TEMP    WIND        PRES    WAVE
                       AIR SEA DIR/SP/G            HT/PER
                 (UTC) (F)     (DEG/KT/KT) (MB)    (FT/S)
PETIT BOIS ISLND 0448   83     160/ 10/ 12 1019.3F
GRAND BAY        0330   84     170/ 10     1020.0R
KATRINA CUT      0430   84     170/  9     1019.3R
CEDAR POINT      0430   83     150/  7     1019.0R
E DAUPHIN ISLAND 0400   83     150/  9/ 10 1018.6R
MIDDLE BAY LIGHT 0400   83     110/ 10     1018.0
USCG MOBILE BAY  0448   82 85  160/  5/  8 1018.9S
STATE DOCKS      0436   82 86              1018.8S
MEAHER PARK      0430   80     100/  4     1019.6S
WEEKS BAY        0330   78                 1018.0S
FORT MORGAN      0448   83     170/ 10/ 11 1018.6F
12 S ORANGE BCH  0450   84     160/ 10/ 12 1018.5F   1/ 5
PENSACOLA BAY    0436   83 84  180/  4/  5 1019.0F
64 S DAUPHIN ISL 0450      85  140/  8/ 10 1018.7R   2/ 5

$$

SELECTED LOCATIONS ACROSS THE REGION

CITY           SKY/WX    TMP DP  RH WIND       PRES   REMARKS
NEW ORLEANS    MOCLDY    80  78  94 S3        30.06S
GULFPORT       FAIR      79  76  90 NE3       30.05F
PASCAGOULA AP  FAIR      77  75  93 CALM      30.07F
PASCAGOULA*    NOT AVBL
HATTIESBURG    FAIR      75  73  93 N3        30.08S
LAUREL         FAIR      74  73  97 SE3       30.09R
MERIDIAN       MOCLDY    75  72  90 CALM      30.08S
JACKSON        FAIR      75  73  93 CALM      30.06R
MONTGOMERY     FAIR      74  73  97 CALM      30.11F
TROY           FAIR      73  71  93 CALM      30.13S
ASHFORD*         N/A    N/A N/A N/A SE5       30.12S
DOTHAN         FAIR      73  70  90 CALM      30.15F
PANAMA CITY    FAIR      74  71  91 CALM      30.10S

$$




USA.gov is the U.S. government's official web portal to all federal, state and local government web resources and services.